{"data":{"norad_id":56944,"epoch":"2026-05-25T04:00:32.479776Z","epoch_age_seconds":63767,"freshness":"FRESH","line1":"1 56944U 23084N   26145.16704259  .00010187  00000+0  35313-3 0  9991","line2":"2 56944  97.5484 281.5147 0007815  52.5320 307.6630 15.29995252164266","mean_motion":15.29995252,"eccentricity":0.0007815,"inclination_deg":97.5484,"raan_deg":281.5147,"arg_perigee_deg":52.532,"mean_anomaly_deg":307.663,"bstar":0.00035313,"rev_number":16426,"period_min":94.11793913201,"perigee_km":470.47010575802,"apogee_km":481.18285067448,"semimajor_km":6853.9634782162,"source":"CELESTRAK","updated_at":"2026-05-25T13:37:59.784555Z"}}